<< Return to Weather Page
Fresno, CA
on Friday, January 11, 2013

Friday
Previous Day Next Day
Daily Summary
 ActualAverageRecord
Temperature
Mean Temperature - 46 °F  
Max Temperature 51 °F 54 °F 74 °F (1990)
Min Temperature 31 °F 38 °F 19 °F (1949)
Degree Days
Heating Degree Days 24    
Month to date heating degree days 214  
Since 1 July heating degree days 875  
Cooling Degree Days 0    
Month to date cooling degree days 0  
Year to date cooling degree days 0  
Moisture
Dew Point 30 °F   
Average Humidity 66    
Maximum Humidity 85    
Minimum Humidity 46    
Precipitation
Precipitation 0.00 in 0.07 in 1.54 in (1940)
Month to date precipitation 0.50 0.79  
Year to date precipitation 0.50 0.79  
Snow
Snow 0.00 in - - ()
Month to date snowfall 0.0  
Since 1 July snowfall 0.0  
Snow Depth 0.00 in   
Wind
Wind Speed 2 mph   
Max Wind Speed 12 mph   
Max Gust Speed 16 mph   
Visibility 10 miles   
Events     

Key: T is trace of precipitation, MM is missing value
Source: NWS Daily Summary
Time(PST)TemperatureDew PointHumidity Pressure Visibility Wind DirectionWind SpeedGust SpeedPrecipitationEvents Conditions
12:53 AM 36.0 °F 30.0 °F 79% 30.17 in 10.0 miles NW 5.8 mph - N/A   Clear
1:53 AM 35.1 °F 30.0 °F 82% 30.18 in 10.0 miles Calm Calm - N/A   Clear
2:53 AM 35.1 °F 30.0 °F 82% 30.18 in 10.0 miles Calm Calm - N/A   Scattered Clouds
3:53 AM 32.0 °F 28.0 °F 85% 30.18 in 10.0 miles Calm Calm - N/A   Scattered Clouds
4:53 AM 32.0 °F 28.0 °F 85% 30.19 in 10.0 miles Calm Calm - N/A   Scattered Clouds
5:53 AM 32.0 °F 28.0 °F 85% 30.21 in 10.0 miles Calm Calm - N/A   Scattered Clouds
6:53 AM 30.9 °F 27.0 °F 85% 30.23 in 10.0 miles NNE 3.5 mph - N/A   Mostly Cloudy
7:53 AM 32.0 °F 28.9 °F 88% 30.25 in 8.0 miles Calm Calm - N/A   Scattered Clouds
8:53 AM 37.0 °F 30.9 °F 79% 30.26 in 9.0 miles Calm Calm - N/A   Partly Cloudy
9:53 AM 39.9 °F 32.0 °F 73% 30.26 in 10.0 miles ESE 3.5 mph - N/A   Partly Cloudy
10:53 AM 43.0 °F 30.9 °F 62% 30.25 in 10.0 miles Calm Calm - N/A   Partly Cloudy
11:53 AM 46.0 °F 30.9 °F 56% 30.20 in 10.0 miles Calm Calm - N/A   Partly Cloudy
12:53 PM 48.9 °F 30.0 °F 48% 30.18 in 10.0 miles WNW 6.9 mph - N/A   Partly Cloudy
1:53 PM 50.0 °F 30.0 °F 46% 30.17 in 10.0 miles NW 9.2 mph - N/A   Scattered Clouds
2:53 PM 50.0 °F 30.0 °F 46% 30.16 in 10.0 miles WNW 8.1 mph - N/A   Scattered Clouds
3:53 PM 48.9 °F 28.9 °F 46% 30.15 in 10.0 miles West 6.9 mph - N/A   Scattered Clouds
4:53 PM 46.9 °F 28.9 °F 50% 30.14 in 10.0 miles Calm Calm - N/A   Scattered Clouds
5:53 PM 46.0 °F 28.0 °F 50% 30.14 in 10.0 miles Calm Calm - N/A   Mostly Cloudy
6:53 PM 44.1 °F 30.0 °F 58% 30.14 in 10.0 miles NNE 3.5 mph - N/A   Overcast
7:53 PM 43.0 °F 30.9 °F 62% 30.13 in 10.0 miles Calm Calm - N/A   Mostly Cloudy
8:53 PM 41.0 °F 30.9 °F 67% 30.14 in 10.0 miles Calm Calm - N/A   Scattered Clouds
9:53 PM 37.9 °F 30.0 °F 73% 30.15 in 10.0 miles East 3.5 mph - N/A   Partly Cloudy
10:53 PM 37.0 °F 30.0 °F 76% 30.16 in 9.0 miles Calm Calm - N/A   Clear
11:53 PM 37.0 °F 30.0 °F 76% 30.14 in 9.0 miles SW 4.6 mph - N/A   Partly Cloudy

Astronomy

Sunrise: 07:11 AM (PST) Moon Rise: 06:49 AM (PST) 1 / 11
Sunset: 05:02 PM (PST) Moon Set: 05:24 PM (PST) 1 / 11
Moon Phase
Jan. 11 Jan. 18 Jan. 27 Feb. 03 Feb. 10

Powered by the Weather Underground, Inc.